User: anonymous   Login
Location: Caltech
(34.1382°N, 118.1253°W)
Time: 09:02:31
(UTC-07:00)
Language:

RESURS DK-1 - Orbit

View from above orbital plane
View from above orbital plane
View from above satellite
View from above satellite

Ground track
Ground track

The orbit data is extracted from the following two-line orbital elements,

1 29228U 06021A   16176.79271348  .00000284  00000-0  29087-4 0  9998
2 29228  69.9361 287.2170 0005856 198.0732 327.1890 15.01930575554437
Epoch (UTC): 24 June 2016 19:01:30
Eccentricity: 0.0005856
inclination: 69.9361°
perigee height: 557 km
apogee height: 565 km
right ascension of ascending node: 287.2170°
argument of perigee: 198.0732°
revolutions per day: 15.01930575
mean anomaly at epoch: 327.1890°
orbit number at epoch: 55443

The dashed part of the orbit path shows where the satellite is in the earth's shadow,  

DLR